x

Bodega Bay - 48nm Nnw Of San Francisco, Ca (46013) Weather Station

3:20pm - Sat 18th Nov 2017 All times are PST. -8 hours from GMT.

  • Wind
    7mph, 9mph gusts
  • Sea Temp 57°f
  • Air Temp 55°f
  • Sea Pressure 1022mb
  • Bodega Bay - 48nm Nnw Of San Francisco, Ca
  • Bodega Bay - 48nm Nnw Of San Francisco, Ca

More Historic Weather Station data

Upgrade to MSW Pro to gain access to the past 30 days of data for over 8000 Wavebouys and Weather Stations around the globe.

Join

Comparision Forecast

View Surf forecast
   
Sat 11/18 3:20pm  -   -   -  7 9 mph 1022mb 57f 55f
3:10pm  -   -   -  7 9 mph 1022.1mb 58f 55f
3:00pm  -   -   -  7 9 mph 1022.1mb 58f 55f
2:50pm 4ft 10s 7s 7 7 mph 1022.1mb 58f 55f
2:40pm  -   -   -  4 7 mph 1022.2mb 58f 55f
2:30pm  -   -   -  4 7 mph 1022.2mb 58f 55f
2:20pm  -   -   -  4 7 mph 1022.3mb 58f 55f
2:10pm  -   -   -  4 4 mph 1022.4mb 58f 55f
2:00pm  -   -   -  4 4 mph 1022.4mb 58f 55f
1:50pm 4.5ft 10s 7s 4 4 mph 1022.4mb 58f 55f
1:40pm 4.5ft  -  7s 2 4 mph 1022.6mb 57f 55f
1:30pm  -   -   -  2 4 mph 1022.7mb 58f 55f
1:20pm  -   -   -  2 4 mph 1022.9mb 57f 55f
1:10pm  -   -   -  2 2 mph 1022.9mb 57f 56f
1:00pm  -   -   -   -  2 mph 1023mb 57f 56f
12:50pm 4.5ft 11s 7s  -  2 mph 1023.1mb 57f 56f
12:40pm 4.5ft  -  7s  -  2 mph 1023.3mb 57f 56f
12:30pm  -   -   -   -  0 mph 1023.4mb 57f 55f
12:20pm  -   -   -   -  2 mph 1023.4mb 57f 54f
12:10pm  -   -   -   -  2 mph 1023.7mb 57f 54f
12:00pm  -   -   -   -  4 mph 1023.9mb 57f 54f
11:50am 5ft 8s 7s 2 4 mph 1024.1mb 57f 54f
11:40am 5ft  -  7s 4 7 mph 1023.9mb 57f 53f
11:30am  -   -   -  4 9 mph 1023.9mb 57f 53f
11:20am  -   -   -  7 9 mph 1024mb 57f 53f
11:10am  -   -   -  7 9 mph 1024.1mb 57f 53f
11:00am  -   -   -  7 11 mph 1024.2mb 57f 53f
10:50am 5ft 9s 7s 7 11 mph 1024.3mb 57f 52f
10:40am 5ft  -  7s 9 11 mph 1024.2mb 57f 52f
10:30am  -   -   -  9 11 mph 1024.3mb - 52f
10:20am  -   -   -  7 11 mph 1024.3mb 57f 52f
10:10am  -   -   -  7 11 mph 1024.4mb 57f 52f
10:00am  -   -   -  7 11 mph 1024.4mb 57f 52f
9:50am 5.5ft 10s 7s 7 11 mph 1024.5mb 57f 52f
9:40am  -   -   -  9 11 mph 1024.4mb 57f 52f
9:30am  -   -   -  9 13 mph 1024.3mb 57f 52f
9:20am  -   -   -  9 13 mph 1024.1mb 57f 52f
9:10am  -   -   -  11 16 mph 1024.2mb 57f 52f
9:00am  -   -   -  9 13 mph 1024.2mb 56f 52f
8:50am 5ft 9s 7s 9 11 mph 1024.2mb 56f 53f
8:40am 5ft  -  7s 9 13 mph 1024mb 56f 53f
8:30am  -   -   -  9 13 mph 1024.1mb 56f 53f
8:20am  -   -   -  9 11 mph 1024mb 56f 53f
8:10am  -   -   -  7 11 mph 1024.2mb 56f 53f
8:00am  -   -   -  9 11 mph 1024mb 56f 53f
7:50am 5ft 10s 7s 9 11 mph 1024mb 56f 53f
7:40am 5ft  -  7s 9 11 mph 1024mb 56f 53f
7:30am  -   -   -  9 11 mph 1024mb 56f 52f
7:20am  -   -   -  9 13 mph 1023.9mb 56f 52f
7:10am  -   -   -  9 11 mph 1023.9mb 56f 52f
7:00am  -   -   -  9 13 mph 1023.7mb 56f 52f
6:50am 6ft 9s 8s 9 13 mph 1023.7mb 56f 52f
6:40am 6ft  -  8s 9 13 mph 1023.6mb 56f 52f
6:30am  -   -   -  9 13 mph 1023.5mb 56f 52f
6:20am  -   -   -  9 13 mph 1023.4mb 56f 52f
6:10am  -   -   -  11 13 mph 1023.4mb 56f 52f
6:00am  -   -   -  11 13 mph 1023.4mb - 52f
5:50am 6ft 9s 7s 9 13 mph 1023.3mb 56f 52f
5:40am  -   -   -  9 13 mph 1023.3mb 56f 52f
5:30am  -   -   -  11 13 mph 1023.2mb 56f 52f
5:20am  -   -   -  11 13 mph 1023mb 56f 52f
5:10am  -   -   -  11 13 mph 1022.9mb 56f 52f
5:00am  -   -   -  11 13 mph 1022.9mb 56f 52f
4:50am 5ft 10s 7s 11 13 mph 1022.7mb 56f 52f
4:40am  -   -   -  11 13 mph 1022.7mb - 53f
4:30am  -   -   -  9 13 mph 1022.7mb 56f 53f
4:20am  -   -   -  7 11 mph 1022.8mb 56f 53f
4:10am  -   -   -  7 9 mph 1022.8mb 56f 54f
4:00am  -   -   -  4 7 mph 1022.9mb 56f 54f
3:50am 5.5ft 10s 7s 2 4 mph 1022.9mb 56f 54f
3:40am 5.5ft  -  7s 2 4 mph 1022.9mb 56f 54f
3:30am  -   -   -  4 4 mph 1022.9mb 56f 54f
3:20am  -   -   -  4 7 mph 1022.9mb 56f 54f
3:10am  -   -   -  4 7 mph 1023mb 56f 54f
3:00am  -   -   -  4 9 mph 1023.2mb 56f 54f
2:50am 5ft 10s 7s 7 7 mph 1023mb 56f 54f
2:40am 5ft  -  7s 4 7 mph 1023.1mb 56f 54f
2:30am  -   -   -  4 9 mph 1023.2mb 56f 54f
2:20am  -   -   -  4 7 mph 1023.2mb 56f 54f
2:10am  -   -   -  4 7 mph 1023.2mb - 54f
2:00am  -   -   -  4 7 mph 1023.2mb 56f 54f
1:50am 5.5ft 10s 7s 4 7 mph 1023.1mb 56f 54f
1:40am 5.5ft  -  7s 4 7 mph 1023.1mb 56f 54f
1:30am  -   -   -  4 7 mph 1023.1mb 56f 54f
1:20am  -   -   -  4 7 mph 1023.1mb 56f 54f
1:10am  -   -   -  7 7 mph 1023.1mb 56f 55f
1:00am  -   -   -  7 9 mph 1023.1mb 56f 55f
12:50am 5.5ft 10s 7s 7 9 mph 1023.1mb 56f 55f
12:40am 5.5ft  -  7s 7 9 mph 1023.1mb 56f 55f
12:30am  -   -   -  9 11 mph 1023.2mb 56f 55f
12:20am  -   -   -  11 13 mph 1023.2mb - 55f
12:10am  -   -   -  11 13 mph 1023.1mb 56f 55f
12:00am  -   -   -  11 13 mph 1023mb 56f 55f
Fri 11/17 11:50pm 6ft 11s 7s 9 11 mph 1023mb 56f 55f
11:40pm 6ft  -  7s 11 13 mph 1023mb 56f 55f
11:30pm  -   -   -  11 13 mph 1023.1mb 56f 56f
11:20pm  -   -   -  11 13 mph 1023.2mb 56f 56f
11:10pm  -   -   -  11 13 mph 1023.2mb 56f 56f
11:00pm  -   -   -  11 16 mph 1023.2mb - 56f
10:50pm 5.5ft 11s 7s 11 16 mph 1023.3mb 56f 56f
10:40pm 5.5ft  -  7s 9 13 mph 1023.2mb 56f 56f
10:30pm  -   -   -  9 16 mph 1023.2mb 56f 56f
10:20pm  -   -   -  11 13 mph 1023.2mb 56f 56f
10:10pm  -   -   -  9 13 mph 1023.2mb 56f 56f
10:00pm  -   -   -  11 13 mph 1023.2mb 56f 56f
9:50pm 5.5ft 10s 6s 11 13 mph 1023.2mb 56f 56f
9:40pm 5.5ft  -  6s 11 13 mph 1023.2mb 56f 56f
9:30pm  -   -   -  11 13 mph 1023.2mb 56f 56f
9:20pm  -   -   -  9 11 mph 1023.2mb 56f 56f
9:10pm  -   -   -  11 13 mph 1023.1mb 56f 56f
9:00pm  -   -   -  11 13 mph 1023.1mb 56f 56f
8:50pm 5.5ft 11s 6s 11 13 mph 1023mb 56f 56f
8:40pm  -   -   -  11 16 mph 1022.9mb 56f 56f
8:30pm  -   -   -  13 16 mph 1022.9mb 56f 56f
8:20pm  -   -   -  13 18 mph 1022.8mb 56f 56f
8:10pm  -   -   -  16 20 mph 1022.6mb 56f 56f
8:00pm  -   -   -  16 20 mph 1022.4mb 56f 56f
7:50pm 6ft 11s 7s 16 20 mph 1022.5mb 56f 56f
7:40pm  -   -   -  18 22 mph 1022.6mb 56f 56f
7:30pm  -   -   -  18 20 mph 1022.5mb 56f 56f
7:20pm  -   -   -  18 22 mph 1022.6mb - 56f
7:10pm  -   -   -  16 20 mph 1022.6mb 56f 56f
7:00pm  -   -   -  16 20 mph 1022.8mb 56f 56f
6:50pm 6ft 11s 7s 16 20 mph 1022.7mb 56f 56f
6:40pm 6ft  -  7s 16 20 mph 1022.8mb 56f 56f
6:30pm  -   -   -  16 18 mph 1022.8mb 56f 56f
6:20pm  -   -   -  13 18 mph 1022.8mb 56f 56f
6:10pm  -   -   -  13 16 mph 1022.8mb 56f 56f
6:00pm  -   -   -  13 16 mph 1022.9mb 56f 56f
5:50pm 6ft 11s 7s 13 16 mph 1022.9mb 56f 56f
5:40pm 6ft  -  7s 11 16 mph 1022.8mb 56f 56f
5:30pm  -   -   -  11 13 mph 1022.9mb 56f 56f
5:20pm  -   -   -  11 16 mph 1022.9mb 56f 56f
5:10pm  -   -   -  11 16 mph 1022.8mb 56f 56f
5:00pm  -   -   -  11 16 mph 1022.7mb 56f 56f
4:50pm 6.5ft 11s 7s 11 16 mph 1022.7mb 56f 56f
4:40pm 6.5ft  -  7s 11 16 mph 1022.6mb 56f 56f
4:30pm  -   -   -  11 16 mph 1022.7mb 56f 56f
4:20pm  -   -   -  13 16 mph 1022.7mb 56f 56f
4:10pm  -   -   -  13 16 mph 1022.5mb 56f 56f
4:00pm  -   -   -  11 16 mph 1022.6mb 56f 56f
3:50pm 6ft 11s 7s 13 16 mph 1022.6mb 56f 56f
3:40pm 6ft  -  7s 13 16 mph 1022.7mb 56f 56f
3:30pm  -   -   -  13 18 mph 1022.6mb 56f 56f
3:20pm  -   -   -  13 18 mph 1022.8mb 56f 56f
3:10pm  -   -   -  13 18 mph 1022.9mb 56f 56f
3:00pm  -   -   -  13 16 mph 1022.9mb 56f 56f
2:50pm 6ft 12s 7s 16 18 mph 1022.9mb 56f 56f
2:40pm  -   -   -  13 18 mph 1022.9mb 56f 56f
2:30pm  -   -   -  13 16 mph 1022.8mb - 56f
2:20pm  -   -   -  13 18 mph 1022.9mb 56f 56f
2:10pm  -   -   -  13 16 mph 1022.8mb 56f 56f
2:00pm  -   -   -  13 18 mph 1022.9mb 56f 56f
1:50pm 7ft 11s 7s 13 16 mph 1023mb 56f 56f
1:40pm 7ft  -  7s 13 16 mph 1023mb 56f 56f
1:30pm  -   -   -  13 16 mph 1023mb 56f 56f
1:20pm  -   -   -  13 16 mph 1023mb 56f 55f
1:10pm  -   -   -  13 16 mph 1022.9mb 56f 55f
1:00pm  -   -   -  13 18 mph 1022.9mb 56f 55f
12:50pm 7.5ft 11s 7s 13 18 mph 1023mb 56f 55f
12:40pm  -   -   -  13 18 mph 1023.1mb 56f 55f
12:30pm  -   -   -  13 18 mph 1023.1mb 56f 55f
12:20pm  -   -   -  13 16 mph 1023.1mb 56f 55f
12:10pm  -   -   -  13 18 mph 1023.1mb 56f 55f
12:00pm  -   -   -  13 18 mph 1023.2mb 56f 55f
11:50am 8ft 11s 7s 13 16 mph 1023.1mb 56f 55f
11:40am 8ft  -  7s 13 16 mph 1023.1mb 56f 55f
11:30am  -   -   -  11 18 mph 1023.2mb 56f 55f
11:20am  -   -   -  11 16 mph 1023.2mb 56f 55f
11:10am  -   -   -  11 16 mph 1023.3mb 56f 55f
11:00am  -   -   -  13 18 mph 1023.2mb 56f 55f
10:50am 8ft 10s 8s 13 18 mph 1023.3mb 56f 55f
10:40am  -   -   -  13 18 mph 1023.2mb 56f 55f
10:30am  -   -   -  13 18 mph 1023.2mb 56f 55f
10:20am  -   -   -  13 18 mph 1023.1mb 56f 55f
10:10am  -   -   -  13 18 mph 1023mb - 55f
10:00am  -   -   -  13 18 mph 1022.8mb 56f 55f
9:50am 7.5ft 11s 7s 16 20 mph 1022.6mb 56f 55f
9:40am 7.5ft  -  7s 16 20 mph 1022.3mb 56f 55f
9:30am  -   -   -  16 20 mph 1022.2mb 56f 54f
9:20am  -   -   -  16 20 mph 1022mb 56f 54f
9:10am  -   -   -  13 18 mph 1021.9mb 56f 54f
9:00am  -   -   -  13 18 mph 1021.9mb 56f 54f
8:50am 7.5ft 10s 7s 13 18 mph 1021.8mb 56f 54f
8:40am 7.5ft  -  7s 13 16 mph 1021.8mb 56f 54f
8:30am  -   -   -  11 16 mph 1021.8mb 56f 54f
8:20am  -   -   -  13 16 mph 1021.7mb 56f 54f
8:10am  -   -   -  13 16 mph 1021.7mb 56f 54f
8:00am  -   -   -  11 16 mph 1021.6mb 56f 54f
7:50am 8ft 11s 8s 13 16 mph 1021.3mb 56f 55f
7:40am  -   -   -  13 18 mph 1021.2mb 56f 55f
7:30am  -   -   -  13 18 mph 1021mb 56f 55f
7:20am  -   -   -  13 18 mph 1020.8mb 56f 55f
7:10am  -   -   -  11 16 mph 1020.7mb 56f 55f
7:00am  -   -   -  13 16 mph 1020.4mb 56f 55f
6:50am 7ft 11s 7s 9 13 mph 1020.3mb 56f 55f
6:40am 7ft  -  7s 13 18 mph 1020.2mb 56f 55f
6:30am  -   -   -  16 20 mph 1020.1mb 56f 55f
6:20am  -   -   -  16 20 mph 1019.9mb 56f 55f
6:10am  -   -   -  13 18 mph 1019.6mb 56f 55f
6:00am  -   -   -  13 18 mph 1019.4mb 56f 55f
5:50am 7ft 11s 8s 16 20 mph 1019.3mb 56f 55f
5:40am 7ft  -  8s 13 20 mph 1019.1mb 56f 55f
5:30am  -   -   -  16 20 mph 1019mb 56f 55f
5:20am  -   -   -  16 20 mph 1018.7mb 56f 55f
5:10am  -   -   -  13 18 mph 1018.6mb 56f -
5:00am  -   -   -  16 20 mph 1018.5mb 56f 55f
4:50am 8ft 11s 8s 16 22 mph 1018.4mb 56f 55f
4:40am  -   -   -  18 25 mph 1018.2mb 56f 55f
4:30am  -   -   -  16 22 mph 1017.9mb 56f 56f
4:20am  -   -   -  16 22 mph 1017.9mb 56f -
4:10am  -   -   -  16 20 mph 1017.8mb 56f 56f
4:00am  -   -   -  16 20 mph 1017.8mb 56f 56f
3:50am 6.5ft 11s 7s 18 22 mph 1017.6mb 56f 56f
3:40am  -   -   -  18 22 mph 1017.6mb 56f 56f
3:30am  -   -   -  18 22 mph 1017.5mb 56f 56f
3:20am  -   -   -  16 20 mph 1017.4mb 56f 56f
3:10am  -   -   -  18 20 mph 1017.3mb 56f 56f
3:00am  -   -   -  18 22 mph 1017.2mb 56f 56f
2:50am 6ft 12s 8s 16 20 mph 1017.1mb 56f 56f
2:40am 6ft  -  8s 16 18 mph 1017.1mb 56f 56f
2:30am  -   -   -  16 22 mph 1016.9mb 56f 56f
2:20am  -   -   -  16 20 mph 1016.8mb 56f 56f
2:10am  -   -   -  16 20 mph 1016.7mb 56f 56f
2:00am  -   -   -  16 20 mph 1016.6mb 56f 56f
1:50am 6ft 12s 7s 16 18 mph 1016.5mb 56f 56f
1:40am  -   -   -  16 20 mph 1016.3mb 56f 56f
1:30am  -   -   -  16 20 mph 1016.2mb 56f 56f
1:20am  -   -   -  16 20 mph 1016.2mb 56f 56f
1:10am  -   -   -  13 20 mph 1016.1mb 56f 56f
1:00am  -   -   -  13 18 mph 1016mb 56f 56f
12:50am 7ft 12s 8s 13 18 mph 1015.9mb 56f 56f
12:40am  -   -   -  13 18 mph 1015.8mb 56f 56f
12:30am  -   -   -  13 18 mph 1015.5mb 56f 56f
12:20am  -   -   -  11 16 mph 1015.5mb 56f 56f
12:10am  -   -   -  13 16 mph 1015.4mb 56f 56f
12:00am  -   -   -  13 16 mph 1015.3mb 56f 55f
Thu 11/16 11:50pm 7.5ft 13s 8s 13 18 mph 1015.2mb 56f 55f
11:40pm  -   -   -  11 16 mph 1015.1mb 56f 55f
11:30pm  -   -   -  11 16 mph 1015mb 56f 55f
11:20pm  -   -   -  11 13 mph 1015mb 56f 55f
11:10pm  -   -   -  11 16 mph 1014.9mb 56f 54f
11:00pm  -   -   -  11 13 mph 1014.8mb 56f 53f
10:50pm 7ft 12s 7s 11 16 mph 1014.7mb 56f 53f
10:40pm 7ft  -  7s 13 22 mph 1014.7mb 56f 52f
10:30pm  -   -   -  18 25 mph 1014.8mb 56f 54f
10:20pm  -   -   -  13 20 mph 1014.6mb 56f 55f
10:10pm  -   -   -  11 18 mph 1014.6mb 56f 55f
10:00pm  -   -   -  11 16 mph 1014.4mb - 55f
9:50pm 7ft 11s 7s 11 16 mph 1014.4mb 56f 55f
9:40pm  -   -   -  11 16 mph 1014.4mb 56f 55f
9:30pm  -   -   -  13 18 mph 1014.3mb 56f 55f
9:20pm  -   -   -  11 16 mph 1014.1mb 56f 55f
9:10pm  -   -   -  13 16 mph 1014mb 56f 55f
9:00pm  -   -   -  9 16 mph 1013.9mb 56f 55f
8:50pm 7ft 13s 7s 9 16 mph 1013.8mb 56f 55f
8:40pm 7ft  -  7s 13 18 mph 1013.8mb 56f 54f
8:30pm  -   -   -  16 20 mph 1013.7mb 56f -
8:20pm  -   -   -  13 20 mph 1013.4mb 56f 55f
8:10pm  -   -   -  13 18 mph 1013.3mb 56f 55f
8:00pm  -   -   -  13 16 mph 1013.4mb 57f 54f
7:50pm 7.5ft 13s 7s 13 18 mph 1013.3mb 57f 54f
7:40pm 7.5ft  -  7s 16 18 mph 1013.2mb 57f 54f
7:30pm  -   -   -  16 20 mph 1013.3mb 57f 54f
7:20pm  -   -   -  20 25 mph 1013.2mb 57f 53f
7:10pm  -   -   -  20 25 mph 1013.1mb 57f 53f
7:00pm  -   -   -  20 25 mph 1012.9mb 57f 54f
6:50pm 7.5ft 11s 7s 16 18 mph 1012.8mb 57f 54f
6:40pm  -   -   -  16 20 mph 1012.6mb - 54f
6:30pm  -   -   -  16 20 mph 1012.5mb 57f 55f
6:20pm  -   -   -  16 20 mph 1012.5mb 57f 55f
6:10pm  -   -   -  13 20 mph 1012.3mb 58f 56f
6:00pm  -   -   -  11 16 mph 1012.2mb 58f 56f
5:50pm 9ft 12s 8s 9 13 mph 1012.1mb 58f 56f
5:40pm  -   -   -  7 13 mph 1012.1mb 58f 56f
5:30pm  -   -   -  4 9 mph 1012.1mb 58f 56f
5:20pm  -   -   -  4 9 mph 1012.2mb 58f 56f
5:10pm  -   -   -  7 9 mph 1012.1mb 58f -
5:00pm  -   -   -  7 11 mph 1012.1mb 58f 56f
4:50pm 10ft  -  8s 7 11 mph 1012.1mb 58f -
4:40pm 10ft  -  8s 4 9 mph 1011.8mb 58f 57f
4:30pm  -   -   -  4 9 mph 1011.8mb 58f 57f
4:20pm  -   -   -  4 9 mph 1012mb - 57f
4:10pm  -   -   -  2 7 mph 1012.1mb 58f 57f
4:00pm  -   -   -   -  2 mph 1012.1mb 58f 57f
3:50pm 10ft 12s 9s  -  2 mph 1012.2mb 58f 57f
3:40pm  -   -   -   -  4 mph 1012.1mb 58f 57f
3:30pm  -   -   -   -  4 mph 1011.8mb 58f 57f
3:20pm  -   -   -   -  2 mph 1011.7mb 57f 56f
3:10pm  -   -   -   -  4 mph 1011.6mb 57f 56f
3:00pm  -   -   -  4 7 mph 1011.4mb 57f -
2:50pm 9ft 11s 8s 4 7 mph 1011.2mb 56f 56f
2:40pm 9ft  -  8s 4 7 mph 1011.3mb 56f 56f
2:30pm  -   -   -  2 4 mph 1011.5mb 56f 56f
2:20pm  -   -   -  2 4 mph 1011.6mb 56f 56f
2:10pm  -   -   -  2 4 mph 1011.8mb 56f 56f
2:00pm  -   -   -  2 4 mph 1011.9mb 56f 56f
1:50pm 10ft 12s 9s 2 4 mph 1011.9mb 56f 56f
1:40pm 10ft  -  9s 2 4 mph 1011.9mb 56f 56f
1:30pm  -   -   -  4 7 mph 1011.6mb 56f 56f
1:20pm  -   -   -  2 4 mph 1011.8mb 56f 56f
1:10pm  -   -   -  2 4 mph 1012mb 56f 56f
1:00pm  -   -   -  2 4 mph 1012mb 56f 56f
12:50pm 9ft 11s 8s 2 4 mph 1012mb 56f 56f
12:40pm 9ft  -  8s 2 4 mph 1011.9mb 56f 56f
12:30pm  -   -   -  2 7 mph 1012mb 56f 56f
12:20pm  -   -   -  2 7 mph 1012mb 56f 56f
12:10pm  -   -   -  2 7 mph 1012.1mb 56f 56f
12:00pm  -   -   -  2 7 mph 1012.1mb 56f 56f
11:50am 8ft 11s 7s 2 7 mph 1012.2mb 56f 56f
11:40am 8ft  -  7s 2 7 mph 1012.4mb 55f 56f
11:30am  -   -   -  2 4 mph 1012.6mb 55f 56f
11:20am  -   -   -  2 7 mph 1012.7mb 55f 56f
11:10am  -   -   -  2 7 mph 1012.8mb 55f 56f
11:00am  -   -   -   -  4 mph 1012.7mb 55f 56f
10:50am 8.5ft 12s 8s 2 7 mph 1012.9mb 55f 56f
10:40am  -   -   -  2 4 mph 1012.7mb 55f 56f
10:30am  -   -   -  2 7 mph 1012.8mb 55f 56f
10:20am  -   -   -  4 7 mph 1012.7mb 56f 56f
10:10am  -   -   -  4 9 mph 1012.4mb 56f 56f
10:00am  -   -   -  4 9 mph 1012.3mb 56f -
9:50am 8.5ft 11s 8s 4 9 mph 1012.3mb 56f 56f
9:40am  -   -   -  2 9 mph 1012.3mb 56f 56f
9:30am  -   -   -   -  2 mph 1012.4mb 56f 56f
9:20am  -   -   -   -  2 mph 1012.4mb 55f 56f
9:10am  -   -   -   -  4 mph 1012.3mb 55f 56f
9:00am  -   -   -  2 4 mph 1012.2mb 55f 56f
8:50am 8.5ft 12s 8s  -  2 mph 1012.2mb 56f 56f
8:40am  -   -   -   -  4 mph 1012.2mb 56f 56f
8:30am  -   -   -   -  4 mph 1012.1mb 56f 56f
8:20am  -   -   -   -  2 mph 1011.7mb 56f 56f
8:10am  -   -   -   -  4 mph 1011.8mb 56f 56f
8:00am  -   -   -  2 7 mph 1011.7mb - 56f
7:50am 8ft 13s 8s 4 7 mph 1011.7mb 56f 56f
7:40am  -   -   -  4 7 mph 1011.7mb 56f 56f
7:30am  -   -   -  4 9 mph 1011.6mb 56f 56f
7:20am  -   -   -  4 7 mph 1011.6mb 56f 56f
7:10am  -   -   -  4 9 mph 1011.5mb - 56f
7:00am  -   -   -  4 7 mph 1011.3mb 56f 56f
6:50am 8ft 11s 8s 4 9 mph 1011.3mb 56f 56f
6:40am 8ft  -  8s 4 7 mph 1011.1mb 56f 56f
6:30am  -   -   -  4 9 mph 1011.1mb 56f 56f
6:20am  -   -   -  4 9 mph 1011.3mb 56f 56f
6:10am  -   -   -  4 9 mph 1011.1mb 56f 56f
6:00am  -   -   -  7 9 mph 1011.1mb 58f 56f
5:50am 8ft  -  8s 7 9 mph 1011.2mb - 56f
5:40am 8ft 13s  -   -  mph - 58f -
5:30am  -   -   -  7 11 mph 1011.1mb 59f 55f
5:20am  -   -   -  9 11 mph 1011.3mb 59f 55f
5:10am  -   -   -  9 13 mph 1011.1mb 59f 55f
5:00am  -   -   -  11 16 mph 1011mb 59f 55f
4:50am 7.5ft 12s 8s 13 18 mph 1011.1mb 59f 55f
4:40am 7.5ft  -  8s 13 18 mph 1010.7mb 59f 55f
4:30am  -   -   -  13 18 mph 1010.8mb 60f 55f
4:20am  -   -   -  13 16 mph 1010.9mb 60f 55f
4:10am  -   -   -  13 20 mph 1010.9mb 60f 55f
4:00am  -   -   -  13 16 mph 1011.1mb 60f 55f
3:50am 7.5ft 13s 8s 11 16 mph 1011mb 60f 55f
3:40am 7.5ft  -  8s 9 13 mph 1011.1mb 60f 56f
3:30am  -   -   -  9 11 mph 1011.1mb 60f 55f
3:20am  -   -   -  7 11 mph 1011.4mb 60f 55f
3:10am  -   -   -  7 11 mph 1011.2mb 60f 55f
3:00am  -   -   -  9 11 mph 1011.3mb 60f 55f
2:50am 8.5ft 13s 8s 9 11 mph 1011.4mb 60f 55f
2:40am 8.5ft  -  8s 9 13 mph 1011.5mb 60f 55f
2:30am  -   -   -  9 13 mph 1011.4mb 60f -
2:20am  -   -   -  11 13 mph 1011.6mb 60f 56f
2:10am  -   -   -  11 16 mph 1011.6mb 60f 56f
2:00am  -   -   -  11 13 mph 1011.4mb 60f 56f
1:50am 9ft 13s 9s 11 16 mph 1011.5mb 60f 56f
1:40am 9ft  -  9s 11 18 mph 1011.9mb 60f 57f
1:30am  -   -   -  11 16 mph 1011.5mb 60f 57f
1:20am  -   -   -  11 13 mph 1011.5mb 60f 57f
1:10am  -   -   -  11 16 mph 1011.4mb 60f 57f
1:00am  -   -   -  11 13 mph 1011.3mb 60f 57f
12:50am 10ft 13s 8s 9 11 mph 1011mb 60f 57f
12:40am  -   -   -  11 13 mph 1011.1mb 60f 57f
12:30am  -   -   -  11 16 mph 1011.3mb 60f 57f
12:20am  -   -   -  11 16 mph 1011.4mb 60f 57f
12:10am  -   -   -  11 16 mph 1011.5mb 60f 58f
12:00am  -   -   -  11 16 mph 1011.3mb 60f -
Wed 11/15 11:50pm 10.5ft 12s 8s 13 16 mph 1011.6mb 60f 58f
11:40pm  -   -   -  13 18 mph 1011.3mb 60f -
11:30pm  -   -   -  11 18 mph 1011.4mb 60f 58f
11:20pm  -   -   -  11 18 mph 1011.5mb 60f 58f
11:10pm  -   -   -  11 13 mph 1011.4mb 60f 58f
11:00pm  -   -   -  9 13 mph 1011.5mb 60f 57f
10:50pm 9ft 13s 8s 11 13 mph 1011.4mb 60f 57f
10:40pm  -   -   -  11 16 mph 1011.3mb 60f 57f
10:30pm  -   -   -  16 20 mph 1011.2mb 60f 58f
10:20pm  -   -   -  16 18 mph 1011.7mb 60f 57f
10:10pm  -   -   -  13 18 mph 1011.6mb 60f 58f
10:00pm  -   -   -  13 18 mph 1011.1mb 60f 58f
9:50pm 9ft 11s 7s 11 16 mph 1011mb - 58f
9:40pm 9ft  -  7s 9 13 mph 1011.2mb 59f 58f
9:30pm  -   -   -  11 13 mph 1011.1mb 59f 58f
9:20pm  -   -   -  9 13 mph 1011.1mb 59f 58f
9:10pm  -   -   -  9 13 mph 1011.2mb 59f 58f
9:00pm  -   -   -  11 16 mph 1011mb 58f 58f
8:50pm 8ft 11s 6s 13 18 mph 1011.1mb 58f 58f
8:40pm  -   -   -  13 18 mph 1011.1mb 58f 58f
8:30pm  -   -   -  11 18 mph 1011mb - 58f
8:20pm  -   -   -  11 16 mph 1011mb 58f 58f
8:10pm  -   -   -  13 18 mph 1011mb 58f 58f
8:00pm  -   -   -  13 18 mph 1010.8mb 57f 58f
7:50pm 8ft 11s 6s 20 27 mph 1011mb 57f 60f
7:40pm 8ft  -  6s 22 27 mph 1010.3mb 58f 60f
7:30pm  -   -   -  22 29 mph 1010.4mb 57f 60f
7:20pm  -   -   -  25 29 mph 1010.2mb 58f 60f
7:10pm  -   -   -  22 29 mph 1010.2mb 58f 60f
7:00pm  -   -   -  25 29 mph 1010.3mb 58f 60f
6:50pm 7ft 11s 6s 25 29 mph 1010.4mb 57f 60f
6:40pm  -   -   -  25 31 mph 1010.7mb 57f 60f
6:30pm  -   -   -  25 34 mph 1010.5mb 57f 60f
6:20pm  -   -   -  25 31 mph 1010.6mb 57f 59f
6:10pm  -   -   -  25 31 mph 1010.5mb 57f 59f
6:00pm  -   -   -  25 31 mph 1010.6mb 57f 59f
5:50pm 6.5ft 11s 6s 25 31 mph 1010.5mb - 59f
5:40pm  -   -   -  25 34 mph 1010.6mb 58f 59f
5:30pm  -   -   -  25 31 mph 1010.7mb 58f 59f
5:20pm  -   -   -  25 31 mph 1010.6mb 58f 58f
5:10pm  -   -   -  25 34 mph 1010.7mb 57f 58f
5:00pm  -   -   -  25 34 mph 1010.6mb - 58f
4:50pm 7ft 11s 6s 27 34 mph 1010.7mb 58f 59f
4:40pm 7ft  -  6s 27 34 mph 1010.6mb 58f 59f
4:30pm  -   -   -  27 34 mph 1010.6mb 58f 59f
4:20pm  -   -   -  27 34 mph 1010.5mb 58f 59f
4:10pm  -   -   -  27 31 mph 1010.7mb 57f 59f
4:00pm  -   -   -  27 34 mph 1010.6mb 58f 59f
3:50pm 6ft 11s 6s 25 29 mph 1010.6mb 57f 59f
3:40pm  -   -   -  25 34 mph 1011.1mb 57f 59f
3:30pm  -   -   -  22 27 mph 1011.2mb 56f 58f
3:20pm  -   -   -  22 29 mph 1011.3mb 56f 58f
3:10pm  -   -   -  22 31 mph 1011.3mb 56f 58f
3:00pm  -   -   -  22 29 mph 1011.6mb 57f 58f
2:50pm 6ft 11s 7s 22 29 mph 1011.6mb 56f 57f
2:40pm  -   -   -  25 31 mph 1011.7mb 56f 57f
2:30pm  -   -   -  22 29 mph 1011.8mb 56f 57f
2:20pm  -   -   -  20 25 mph 1012.3mb 56f 57f
2:10pm  -   -   -  20 27 mph 1012.5mb 56f 58f
2:00pm  -   -   -  16 22 mph 1012.5mb 56f 57f
1:50pm 5.5ft 11s 7s 16 20 mph 1012.5mb 56f 56f
1:40pm 5.5ft  -  7s 16 20 mph 1012.5mb 56f 56f
1:30pm  -   -   -  18 22 mph 1012.4mb 56f 56f
1:20pm  -   -   -  18 22 mph 1012.7mb 56f 56f
1:10pm  -   -   -  18 22 mph 1012.9mb 56f 55f
1:00pm  -   -   -  18 25 mph 1013.1mb 56f 55f
12:50pm 6ft 11s 7s 18 25 mph 1013.3mb 56f 55f
12:40pm 6ft  -  7s 20 25 mph 1013.4mb 56f 55f
12:30pm  -   -   -  20 25 mph 1013.7mb 56f 54f
12:20pm  -   -   -  20 27 mph 1013.6mb 56f 54f
12:10pm  -   -   -  20 27 mph 1013.8mb 56f 54f
12:00pm  -   -   -  20 27 mph 1013.9mb 56f 54f
11:50am 6.5ft 11s 7s 22 27 mph 1014.1mb 56f 54f
11:40am 6.5ft  -  7s 22 27 mph 1014mb 56f 54f
11:30am  -   -   -  20 27 mph 1014.3mb 56f 54f
11:20am  -   -   -  18 25 mph 1015mb 56f 54f
11:10am  -   -   -  18 22 mph 1015.3mb 56f 54f
11:00am  -   -   -  18 25 mph 1015.3mb 56f 53f
10:50am 6ft 11s 7s 20 22 mph 1015.3mb 56f 54f
10:40am 6ft  -  7s 18 22 mph 1015.5mb 56f 54f
10:30am  -   -   -  18 22 mph 1015.7mb 56f 53f
10:20am  -   -   -  18 22 mph 1015.8mb 56f 53f
10:10am  -   -   -  18 22 mph 1016mb 56f 53f
10:00am  -   -   -  18 22 mph 1016.2mb 56f 53f
9:50am 6ft 11s 8s 18 25 mph 1016.3mb 56f 53f
9:40am 6ft  -  8s 18 22 mph 1016.3mb 56f 52f
9:30am  -   -   -  16 20 mph 1016.5mb 56f 52f
9:20am  -   -   -  16 20 mph 1016.5mb 57f 52f
9:10am  -   -   -  16 20 mph 1016.8mb 57f 52f
9:00am  -   -   -  16 20 mph 1017.1mb 57f 52f
8:50am 6.5ft 11s 9s 16 20 mph 1016.7mb 57f 52f
8:40am 6.5ft  -  9s 16 20 mph 1016.8mb 58f 52f
8:30am  -   -   -  16 18 mph 1017.1mb 58f 52f
8:20am  -   -   -  13 18 mph 1017.5mb 58f 52f
8:10am  -   -   -  13 18 mph 1017.4mb 58f 52f
8:00am  -   -   -  13 18 mph 1017.4mb 58f 51f
7:50am 6.5ft 11s 9s 13 18 mph 1017.7mb 58f 51f
7:40am  -   -   -  13 18 mph 1017mb 59f 51f
7:30am  -   -   -  13 18 mph 1017.5mb 59f 51f
7:20am  -   -   -  11 16 mph 1017.8mb 59f 51f
7:10am  -   -   -  11 16 mph 1017.8mb 59f 52f
7:00am  -   -   -  13 18 mph 1017.8mb 59f 52f
6:50am 7.5ft 11s 10s 13 18 mph 1017.6mb 59f 52f
6:40am 7.5ft  -  10s 9 13 mph 1018mb 59f 52f
6:30am  -   -   -  9 11 mph 1018.2mb - 52f
6:20am  -   -   -  11 13 mph 1017.9mb 59f 52f
6:10am  -   -   -  7 11 mph 1018.1mb 59f 52f
6:00am  -   -   -  7 11 mph 1018.7mb 59f 52f
5:50am 7ft 11s 9s 7 11 mph 1018.8mb 59f 53f
5:40am 7ft  -  9s 9 13 mph 1018.6mb 59f 53f
5:30am  -   -   -  9 13 mph 1018.1mb 59f 54f
5:20am  -   -   -  11 13 mph 1017.8mb 59f 54f
5:10am  -   -   -  9 13 mph 1017.8mb 59f 54f
5:00am  -   -   -  9 11 mph 1018mb 59f 54f
4:50am 7ft 11s 9s 9 11 mph 1018mb 59f 54f
4:40am  -   -   -  7 9 mph 1018.3mb 59f 54f
4:30am  -   -   -  7 11 mph 1018.5mb 59f 54f
4:20am  -   -   -  7 11 mph 1018.2mb 59f 55f
4:10am  -   -   -  7 11 mph 1018.4mb 59f 55f
4:00am  -   -   -  7 11 mph 1018.4mb 59f 55f
3:50am 7.5ft 11s 10s 7 11 mph 1018.3mb 59f 55f
3:40am  -   -   -  4 9 mph 1018.7mb 59f 55f
3:30am  -   -   -  4 9 mph 1019.1mb 59f 55f
3:20am  -   -   -  7 11 mph 1018.5mb 59f 56f
3:10am  -   -   -  7 9 mph 1018.7mb 59f 56f
3:00am  -   -   -  7 11 mph 1018.7mb 59f 56f
2:50am 7.5ft 11s 9s 7 9 mph 1018.9mb 59f 56f
2:40am 7.5ft  -  9s 4 9 mph 1019mb 59f 56f
2:30am  -   -   -  4 9 mph 1019.2mb 59f 56f
2:20am  -   -   -  7 9 mph 1019.2mb 59f 56f
2:10am  -   -   -  7 11 mph 1019.3mb 59f 56f
2:00am  -   -   -  7 9 mph 1019.4mb 59f 56f
1:50am 7.5ft 11s 9s 7 9 mph 1019.4mb 59f 56f
1:40am  -   -   -  4 9 mph 1019.5mb 59f 56f
1:30am  -   -   -  4 7 mph 1019.8mb 59f 56f
1:20am  -   -   -  2 7 mph 1019.7mb 59f 56f
1:10am  -   -   -  2 7 mph 1019.8mb 59f 56f
1:00am  -   -   -  2 4 mph 1019.9mb 59f 56f
12:50am 7.5ft 11s 9s  -  4 mph 1020mb 59f 57f
12:40am 7.5ft  -  9s 2 4 mph 1019.9mb 59f 57f
12:30am  -   -   -  2 4 mph 1020mb 59f 57f